Regional Weather Roundup
Issued by NWS

Home | Current Version | Previous Version | Text Only | Print | Product List | Glossary Off
Versions: 1 2 3 4 5 6 7 8 9 10 11 12 13 14 15 16 17 18 19 20 21 22 23 24 25 26 27 28 29 30 31 32 33 34 35 36 37 38 39 40 41 42 43 44 45 46 47 48 49 50

000
ASUS43 KDTX 110110
RWRMI
MICHIGAN HOURLY REGIONAL WEATHER ROUNDUP
NATIONAL WEATHER SERVICE DETROIT/PONTIAC MI
800 PM EST TUE DEC 10 2019

NOTE: "FAIR" INDICATES FEW OR NO CLOUDS BELOW 12,000 FEET WITH NO
SIGNIFICANT WEATHER AND/OR OBSTRUCTION TO VISIBILITY.

MIZ047>049-052>055-059>063-066>070-074>076-081>083-110200-
SOUTHEAST LOWER MICHIGAN

CITY           SKY/WX    TMP DP  RH WIND       PRES   REMARKS
ADRIAN         FAIR      20  12  71 W12       30.25R WCI   8
ALMA           CLOUDY    22  11  61 W15G24    30.21R WCI   9
ANN ARBOR      FAIR      21  13  71 W15       30.21R WCI   8
BAD AXE        CLOUDY    24  14  67 W13G18    30.14R WCI  12
CARO           MOCLDY    24  12  59 W12       30.17R WCI  13
DETROIT CITY   CLOUDY    26  14  60 W7        30.21R WCI  18
DETROIT        MOCLDY    24  16  71 W15       30.22R WCI  11
FLINT          CLOUDY    23  14  68 W9        30.20R WCI  13
GROSSE ILE     FAIR      25  15  64 W12G21    30.22R WCI  14
HILLSDALE      FAIR      17   9  71 W9        30.21S WCI   6
HOWELL         FLURRIES  23  12  63 W14       30.20R WCI  11

CITY           SKY/WX    TMP DP  RH WIND       PRES   REMARKS
JACKSON        CLOUDY    21  15  78 SW13      30.22R WCI   9
LAMBERTVILLE   FAIR      25  15  68 W9G17     30.25R WCI  15
LANSING        CLOUDY    21  12  68 W12       30.22R WCI   9
LAPEER         FAIR      23  15  71 W7        30.18R WCI  14
MASON          CLOUDY    22  11  65 W15G22    30.21R WCI   8
MONROE         FAIR      24  13  64 W13       30.23R WCI  12
MT. CLEMENS    PTCLDY    25  17  71 W9        30.18R WCI  15
PONTIAC        CLOUDY    23  10  57 W13G23    30.17R WCI  11
PORT HOPE        N/A     25  10  53 W12G18    30.12R WCI  14
PORT HURON     FAIR      25  16  68 W3        30.19R
TRI CITIES     CLOUDY    23  11  60 W18       30.18R WCI   9
MIDLAND        CLOUDY    22  11  61 W16G24    30.18R WCI   8
TROY           FAIR      25  13  60 W13       30.22R WCI  14
SAGINAW HB     CLOUDY    25  12  58 SW14G20   30.18R WCI  13
$$
MIZ043>046-050>051-056>058-064>065-071>073-077>080-110200-
SOUTHWEST LOWER MICHIGAN

CITY           SKY/WX    TMP DP  RH WIND       PRES   REMARKS
BATTLE CREEK   CLOUDY    20  14  77 SW15      30.22S WCI   6
BENTON HARBOR  MOCLDY    24  11  57 W13G22    30.25S WCI  12
BIG RAPIDS     CLOUDY    19   9  65 W7        30.16S WCI  10
COLDWATER      FAIR      19   8  60 W8        30.24S WCI   9
FREMONT        CLOUDY    21  12  66 CALM      30.19S
HOLLAND        CLOUDY    24  13  62 W13       30.22S WCI  12
GRAND RAPIDS   FLURRIES  21  14  74 SW9       30.21R WCI  11
IONIA          FLURRIES  21  15  76 W10       30.20R WCI  10
KALAMAZOO      MOCLDY    19  10  68 W5        30.24R WCI  12
LUDINGTON      CLOUDY    20   9  60 W8G17     30.19R WCI  11
MARSHALL       FLURRIES  20  14  77 SW12      30.23R WCI   8
MOUNT PLEASANT CLOUDY    21  10  61 W10G17    30.18R WCI  10
MUSKEGON       FLURRIES  23  10  57 W14G21    30.21S WCI  11
SOUTH HAVEN    CLOUDY    25  11  55 W12G20    30.24S WCI  14
$$
MIZ016>042-110200-
NORTHERN LOWER MICHIGAN

CITY           SKY/WX    TMP DP  RH WIND       PRES   REMARKS
ALPENA         CLOUDY    20   6  55 SW14G24   30.11R WCI   7
BEAVER ISLAND  CLOUDY    19   9  66 W13G23    30.08R WCI   5
BELLAIRE       CLOUDY    20  10  65 SW12G20   30.12S WCI   8
CADILLAC       CLOUDY    14   6  70 SW6       30.10S WCI   5
CHARLEVOIX     LGT SNOW  20  14  77 SW13      30.09R WCI   7
FRANKFORT      CLOUDY    19  10  69 W12G20    30.16R WCI   6
GAYLORD        LGT SNOW  14  10  84 SW16G23   30.05R FOG     WCI  -2
GRAYLING       CLOUDY    16  11  79 W10G17    30.09S WCI   4
HARBOR SPRINGS LGT SNOW  20  19  96 SW17G29   30.06S VSB 3/4 WCI   6
HOUGHTON LAKE  CLOUDY    17   6  62 W14G26    30.12R WCI   3
MANISTEE       CLOUDY    19   9  65 W15G26    30.17R WCI   5
OSCODA         MOCLDY    22   8  56 W14       30.13R WCI   9
PELLSTON       LGT SNOW  19  12  74 W13G21    30.07R WCI   6
ROGERS CITY    CLOUDY    19  11  73 SW9       30.09R WCI   7
TRAVERSE CITY  CLOUDY    19  10  68 SW7       30.13R WCI  10
$$
MIZ007>008-015-110200-
EASTERN UPPER MICHIGAN

CITY           SKY/WX    TMP DP  RH WIND       PRES   REMARKS
KINROSS        CLOUDY    13   7  77 W13       30.04R WCI  -2
MACKINAC ISLAN LGT SNOW  19  14  79 W17G24    30.05R WCI   4
NEWBERRY       FAIR      10   3  72 W12       30.04R WCI  -4
S. S. MARIE    CLOUDY    16   7  67 W15       30.02R WCI   1
MUNISING         N/A      9   0  67 W9        30.09R WCI  -4
$$
MIZ004>006-011>014-085-110200-
CENTRAL UPPER MICHIGAN

CITY           SKY/WX    TMP DP  RH WIND       PRES   REMARKS
MANISTIQUE     FAIR      10   3  72 W8        30.09R WCI  -2
ESCANABA       FAIR       7   0  73 W9        30.14R WCI  -7
MENOMINEE      FAIR       6  -1  73 W6        30.18R WCI  -4
SAWYER-GWINN   CLEAR      5  -2  72 W6        30.05R WCI  -6
$$
MIZ001>003-009>011-084-110200-
WESTERN UPPER MICHIGAN

CITY           SKY/WX    TMP DP  RH WIND       PRES   REMARKS
IRON MOUNTAIN  CLOUDY     5  -5  63 W9        30.08R WCI  -9
HOUGHTON       LGT SNOW   7   1  76 SW9G21    30.00S VSB 3/4 WCI  -7
COPPER HARBOR    N/A     11   5  77 VRB7      30.02F WCI   0
IRONWOOD       MOCLDY    -2  -8  78 SW8       30.09S WCI -17
$$

ABBREVIATIONS USED IN REMARKS
   TC - TEMPERATURE IN CELSIUS
  WCI - WIND CHILL INDEX
   HX - HEAT INDEX
  VSB - VISIBILITY




USA.gov is the U.S. government's official web portal to all federal, state and local government web resources and services.